UB9HDK-13 Weather Reports


Display with metric or nautical units.
time (UTC)temp
F
wind
direction
speed
MPH
gust
MPH
rain 1hr
in
rain 24hr
in
rain mn
in
humidity
%
barometer
mb
20260504190233 47 0.0 0.0 0.00 0.00 0.00 56 1005.4
20260504180240 49 0.0 0.0 0.00 0.00 0.00 51 1005.6
20260504170249 50 0.0 0.0 0.00 0.00 0.00 52 1005.8
20260504160243 53 0.0 0.0 0.00 0.00 0.00 47 1005.6
20260504150242 56 0.0 0.0 0.00 0.00 0.00 38 1005.5
20260504140237 57 0.0 0.0 0.00 0.00 0.00 34 1005.1
20260504130241 59 0.0 0.0 0.00 0.00 0.00 32 1005.0
20260504120233 59 0.0 0.0 0.00 0.00 0.00 30 1005.0
20260504110309 60 0.0 0.0 0.00 0.00 0.00 28 1004.9
20260504100243 60 0.0 0.0 0.00 0.00 0.00 29 1005.1
20260504080229 58 0.0 0.0 0.00 0.00 0.00 31 1005.4
20260504070241 56 0.0 0.0 0.00 0.04 0.00 37 1005.6
20260504060248 53 0.0 0.0 0.00 0.04 0.00 42 1005.8
20260504050241 53 0.0 0.0 0.00 0.04 0.00 43 1005.5
20260504040253 52 0.0 0.0 0.00 0.16 0.00 49 1005.5
20260504030234 49 0.0 0.0 0.00 0.16 0.00 60 1005.4
20260504020245 45 0.0 0.0 0.00 0.16 0.00 76 1004.9
20260504010242 42 0.0 0.0 0.00 0.16 0.00 80 1004.5
20260504000234 42 0.0 0.0 0.00 0.16 0.00 82 1003.9
20260503230237 46 0.0 0.0 0.00 0.16 0.00 71 1002.6
20260503220225 46 0.0 0.0 0.00 0.16 0.00 67 1001.9
20260503210251 47 0.0 0.0 0.00 0.16 0.00 61 1001.7
20260503200239 47 0.0 0.0 0.00 0.16 0.00 52 1001.6